Location: Shenandoah County Park
(38.9356°N, 78.4524°W)
Time: 05:57:24
(UTC-04:00)

Vanguard 1 Rocket - Pass Details

Date: 12 February 2023
Orbit: 652 x 4223 km, 34.3° (Epoch: 26 March)

Event Time Altitude Azimuth Distance (km) Brightness Sun altitude
Rises 18:46:44 0° 271° (W) 6,864 13.8 -12.0°
Reaches altitude 10° 18:54:21 10° 252° (WSW) 6,504 13.1 -13.5°
Maximum altitude 19:04:27 15° 224° (SW) 6,653 12.4 -15.5°
Drops below altitude 10° 19:16:01 10° 197° (SSW) 7,410 12.3 -17.7°
Sets 19:26:34 0° 178° (S) 8,347 12.3 -19.8°
